This is the latest recevied weather packets stored in our database for station/object XE2B-20. If no packets are shown the sender has not sent any weather packets the latest 10 day(s).
| Time | Temp. | Humidity | Pressure | Rain* | Wind** | Luminosity | Snow |
|---|---|---|---|---|---|---|---|
| 1777981149 | 17.78° C | 22% | 805.6 hPa | - | - | - | - |
| 1777979650 | 17.22° C | 22% | 805.3 hPa | - | - | - | - |
| 1777978151 | 17.78° C | 22% | 805.2 hPa | - | - | - | - |
| 1777976652 | 18.33° C | 21% | 805.1 hPa | - | - | - | - |
| 1777975153 | 18.89° C | 21% | 805 hPa | - | - | - | - |
| 1777973653 | 18.89° C | 21% | 804.8 hPa | - | - | - | - |
| 1777972154 | 19.44° C | 20% | 804.7 hPa | - | - | - | - |
| 1777970655 | 19.44° C | 20% | 804.9 hPa | - | - | - | - |
| 1777969156 | 19.44° C | 20% | 804.9 hPa | - | - | - | - |
| 1777967657 | 20° C | 19% | 805 hPa | - | - | - | - |
| 1777966158 | 20.56° C | 19% | 805.1 hPa | - | - | - | - |
| 1777964660 | 21.11° C | 18% | 805.3 hPa | - | - | - | - |
| 1777963160 | 21.11° C | 18% | 805.3 hPa | - | - | - | - |
| 1777961661 | 21.67° C | 18% | 805.2 hPa | - | - | - | - |
| 1777960162 | 21.67° C | 18% | 805.4 hPa | - | - | - | - |
| 1777958663 | 22.22° C | 17% | 805.5 hPa | - | - | - | - |
| 1777957164 | 22.22° C | 17% | 805.6 hPa | - | - | - | - |
| 1777955665 | 22.78° C | 17% | 805.3 hPa | - | - | - | - |
| 1777954166 | 22.78° C | 17% | 805.2 hPa | - | - | - | - |
| 1777952668 | 23.33° C | 17% | 805 hPa | - | - | - | - |
| 1777951169 | 23.89° C | 16% | 804.6 hPa | - | - | - | - |
| 1777949671 | 24.44° C | 17% | 804.4 hPa | - | - | - | - |
| 1777948171 | 25° C | 16% | 804.1 hPa | - | - | - | - |
| 1777946673 | 26.11° C | 16% | 803.8 hPa | - | - | - | - |
| 1777945173 | 26.67° C | 16% | 803.5 hPa | - | - | - | - |
* Rain since midnight (hover to see other rain measurements)
** Current wind speed in m/s (hover to see current wind gust speed)